Year,Month,Day,Hour,Minute,Value (Times are PST for windspeed in km/hr)
2018,12,19,00,00,12.10
2018,12,19,00,01,16.20
2018,12,19,00,02,11.70
2018,12,19,00,03,16.80
2018,12,19,00,04,10.90
2018,12,19,00,05,18.30
2018,12,19,00,06,19.10
2018,12,19,00,07,11.60
2018,12,19,00,08,15.40
2018,12,19,00,09,15.70
2018,12,19,00,10,19.00
2018,12,19,00,11,16.50
2018,12,19,00,12,20.90
2018,12,19,00,13,15.80
2018,12,19,00,14,10.70
2018,12,19,00,15,8.60
2018,12,19,00,16,13.00
2018,12,19,00,17,11.60
2018,12,19,00,18,13.70
2018,12,19,00,19,17.20
2018,12,19,00,20,13.50
2018,12,19,00,21,8.80
2018,12,19,00,22,14.20
2018,12,19,00,23,10.70
2018,12,19,00,24,6.30
2018,12,19,00,25,8.30
2018,12,19,00,26,7.50
2018,12,19,00,27,11.30
2018,12,19,00,28,10.00
2018,12,19,00,29,9.50
2018,12,19,00,30,13.90
2018,12,19,00,31,11.20
2018,12,19,00,32,10.20
2018,12,19,00,33,11.90
2018,12,19,00,34,6.60
2018,12,19,00,35,8.60
2018,12,19,00,36,15.20
2018,12,19,00,37,15.70
2018,12,19,00,38,14.40
2018,12,19,00,39,16.90
2018,12,19,00,40,21.10
2018,12,19,00,41,15.20
2018,12,19,00,42,12.80
2018,12,19,00,43,19.60
2018,12,19,00,44,13.80
2018,12,19,00,45,14.20
2018,12,19,00,46,11.80
2018,12,19,00,47,18.20
2018,12,19,00,48,12.80
2018,12,19,00,49,16.70
2018,12,19,00,50,12.40
2018,12,19,00,51,14.10
2018,12,19,00,52,12.70
2018,12,19,00,53,11.20
2018,12,19,00,54,15.90
2018,12,19,00,55,18.40
2018,12,19,00,56,12.30
2018,12,19,00,57,12.00
2018,12,19,00,58,10.50
2018,12,19,00,59,19.00
2018,12,19,01,00,12.60
2018,12,19,01,01,16.20
2018,12,19,01,02,14.80
2018,12,19,01,03,13.20
2018,12,19,01,04,13.20
2018,12,19,01,05,9.30
2018,12,19,01,06,14.50
2018,12,19,01,07,12.40
2018,12,19,01,08,12.60
2018,12,19,01,09,13.20
2018,12,19,01,10,12.10
2018,12,19,01,11,13.00
2018,12,19,01,12,15.90
2018,12,19,01,13,26.40
2018,12,19,01,14,17.00
2018,12,19,01,15,12.00
2018,12,19,01,16,20.40
2018,12,19,01,17,23.40
2018,12,19,01,18,15.70
2018,12,19,01,19,16.20
2018,12,19,01,20,19.10
2018,12,19,01,21,18.70
2018,12,19,01,22,16.00
2018,12,19,01,23,16.20
2018,12,19,01,24,18.40
2018,12,19,01,25,15.80
2018,12,19,01,26,18.70
2018,12,19,01,27,12.30
2018,12,19,01,28,10.60
2018,12,19,01,29,8.10
2018,12,19,01,30,10.80
2018,12,19,01,31,14.10
2018,12,19,01,32,10.70
2018,12,19,01,33,15.60
2018,12,19,01,34,13.60
2018,12,19,01,35,8.90
2018,12,19,01,36,9.70
2018,12,19,01,37,8.80
2018,12,19,01,38,11.60
2018,12,19,01,39,4.70
2018,12,19,01,40,1.90
2018,12,19,01,41,2.00
2018,12,19,01,42,1.80
2018,12,19,01,43,2.70
2018,12,19,01,44,5.60
2018,12,19,01,45,7.00
2018,12,19,01,46,8.10
2018,12,19,01,47,7.70
2018,12,19,01,48,10.40
2018,12,19,01,49,9.20
2018,12,19,01,50,11.60
2018,12,19,01,51,6.00
2018,12,19,01,52,7.00
2018,12,19,01,53,5.10
2018,12,19,01,54,3.80
2018,12,19,01,55,4.10
2018,12,19,01,56,5.10
2018,12,19,01,57,4.00
2018,12,19,01,58,4.80
2018,12,19,01,59,5.60
2018,12,19,02,00,5.70
2018,12,19,02,01,2.10
2018,12,19,02,02,2.40
2018,12,19,02,03,2.80
2018,12,19,02,04,1.60
2018,12,19,02,05,3.70
2018,12,19,02,06,5.90
2018,12,19,02,07,4.60
2018,12,19,02,08,1.90
2018,12,19,02,09,3.40
2018,12,19,02,10,5.30
2018,12,19,02,11,3.80
2018,12,19,02,12,0.00
2018,12,19,02,13,0.00
2018,12,19,02,14,0.00
2018,12,19,02,15,0.00
2018,12,19,02,16,0.00
2018,12,19,02,17,0.00
2018,12,19,02,18,0.00
2018,12,19,02,19,0.00
2018,12,19,02,20,0.00
2018,12,19,02,21,0.00
2018,12,19,02,22,0.00
2018,12,19,02,23,1.60
2018,12,19,02,24,3.10
2018,12,19,02,25,2.50
2018,12,19,02,26,2.40
2018,12,19,02,27,3.90
2018,12,19,02,28,1.20
2018,12,19,02,29,1.10
2018,12,19,02,30,3.30
2018,12,19,02,31,3.40
2018,12,19,02,32,2.20
2018,12,19,02,33,3.20
2018,12,19,02,34,3.20
2018,12,19,02,35,3.20
2018,12,19,02,36,3.50
2018,12,19,02,37,6.40
2018,12,19,02,38,6.00
2018,12,19,02,39,4.70
2018,12,19,02,40,2.00
2018,12,19,02,41,2.30
2018,12,19,02,42,5.90
2018,12,19,02,43,5.30
2018,12,19,02,44,2.10
2018,12,19,02,45,2.10
2018,12,19,02,46,3.00
2018,12,19,02,47,0.80
2018,12,19,02,48,0.00
2018,12,19,02,49,0.00
2018,12,19,02,50,1.10
2018,12,19,02,51,5.40
2018,12,19,02,52,7.00
2018,12,19,02,53,4.20
2018,12,19,02,54,2.70
2018,12,19,02,55,2.90
2018,12,19,02,56,5.40
2018,12,19,02,57,9.20
2018,12,19,02,58,3.70
2018,12,19,02,59,3.30
2018,12,19,03,00,1.50
2018,12,19,03,01,3.90
2018,12,19,03,02,9.30
2018,12,19,03,03,8.10
2018,12,19,03,04,10.90
2018,12,19,03,05,9.60
2018,12,19,03,06,5.10
2018,12,19,03,07,2.70
2018,12,19,03,08,6.00
2018,12,19,03,09,6.40
2018,12,19,03,10,6.40
2018,12,19,03,11,5.10
2018,12,19,03,12,4.00
2018,12,19,03,13,3.90
2018,12,19,03,14,5.70
2018,12,19,03,15,3.70
2018,12,19,03,16,4.40
2018,12,19,03,17,3.90
2018,12,19,03,18,3.40
2018,12,19,03,19,5.20
2018,12,19,03,20,4.90
2018,12,19,03,21,5.80
2018,12,19,03,22,5.50
2018,12,19,03,23,4.20
2018,12,19,03,24,2.60
2018,12,19,03,25,0.10
2018,12,19,03,26,0.00
2018,12,19,03,27,0.00
2018,12,19,03,28,0.00
2018,12,19,03,29,2.10
2018,12,19,03,30,3.90
2018,12,19,03,31,2.30
2018,12,19,03,32,4.80
2018,12,19,03,33,4.50
2018,12,19,03,34,2.50
2018,12,19,03,35,0.40
2018,12,19,03,36,0.00
2018,12,19,03,37,0.00
2018,12,19,03,38,0.00
2018,12,19,03,39,0.30
2018,12,19,03,40,0.00
2018,12,19,03,41,0.00
2018,12,19,03,42,3.40
2018,12,19,03,43,4.00
2018,12,19,03,44,2.00
2018,12,19,03,45,0.00
2018,12,19,03,46,0.00
2018,12,19,03,47,0.00
2018,12,19,03,48,0.00
2018,12,19,03,49,0.00
2018,12,19,03,50,0.00
2018,12,19,03,51,0.00
2018,12,19,03,52,0.00
2018,12,19,03,53,3.80
2018,12,19,03,54,1.80
2018,12,19,03,55,0.80
2018,12,19,03,56,1.80
2018,12,19,03,57,2.30
2018,12,19,03,58,1.50
2018,12,19,03,59,0.60
2018,12,19,04,00,0.00
2018,12,19,04,01,0.40
2018,12,19,04,02,1.50
2018,12,19,04,03,1.20
2018,12,19,04,04,3.30
2018,12,19,04,05,1.80
2018,12,19,04,06,0.20
2018,12,19,04,07,1.00
2018,12,19,04,08,4.50
2018,12,19,04,09,2.60
2018,12,19,04,10,0.80
2018,12,19,04,11,1.40
2018,12,19,04,12,0.00
2018,12,19,04,13,0.70
2018,12,19,04,14,0.00
2018,12,19,04,15,0.00
2018,12,19,04,16,0.00
2018,12,19,04,17,4.10
2018,12,19,04,18,4.20
2018,12,19,04,19,1.70
2018,12,19,04,20,1.80
2018,12,19,04,21,0.00
2018,12,19,04,22,0.00
2018,12,19,04,23,0.00
2018,12,19,04,24,0.00
2018,12,19,04,25,0.00
2018,12,19,04,26,0.00
2018,12,19,04,27,0.00
2018,12,19,04,28,0.00
2018,12,19,04,29,0.00
2018,12,19,04,30,1.00
2018,12,19,04,31,3.10
2018,12,19,04,32,3.50
2018,12,19,04,33,2.00
2018,12,19,04,34,3.50
2018,12,19,04,35,3.10
2018,12,19,04,36,2.50
2018,12,19,04,37,3.60
2018,12,19,04,38,2.30
2018,12,19,04,39,2.70
2018,12,19,04,40,3.30
2018,12,19,04,41,3.60
2018,12,19,04,42,2.60
2018,12,19,04,43,1.50
2018,12,19,04,44,0.80
2018,12,19,04,45,1.20
2018,12,19,04,46,0.00
2018,12,19,04,47,3.10
2018,12,19,04,48,2.50
2018,12,19,04,49,3.20
2018,12,19,04,50,2.20
2018,12,19,04,51,0.00
2018,12,19,04,52,0.00
2018,12,19,04,53,0.00
2018,12,19,04,54,3.30
2018,12,19,04,55,2.90
2018,12,19,04,56,4.50
2018,12,19,04,57,5.10
2018,12,19,04,58,5.20
2018,12,19,04,59,4.00
2018,12,19,05,00,2.80
2018,12,19,05,01,2.30
2018,12,19,05,02,0.50
2018,12,19,05,03,0.00
2018,12,19,05,04,0.40
2018,12,19,05,05,0.60
2018,12,19,05,06,1.50
2018,12,19,05,07,2.50
2018,12,19,05,08,3.70
2018,12,19,05,09,3.20
2018,12,19,05,10,2.20
2018,12,19,05,11,2.50
2018,12,19,05,12,2.80
2018,12,19,05,13,2.80
2018,12,19,05,14,2.00
2018,12,19,05,15,1.50
2018,12,19,05,16,1.80
2018,12,19,05,17,1.00
2018,12,19,05,18,0.00
2018,12,19,05,19,0.00
2018,12,19,05,20,0.00
2018,12,19,05,21,0.00
2018,12,19,05,22,0.00
2018,12,19,05,23,0.00
2018,12,19,05,24,0.00
2018,12,19,05,25,0.00
2018,12,19,05,26,0.00
2018,12,19,05,27,0.00
2018,12,19,05,28,0.00
2018,12,19,05,29,0.00
2018,12,19,05,30,0.00
2018,12,19,05,31,0.00
2018,12,19,05,32,0.00
2018,12,19,05,33,0.00
2018,12,19,05,34,0.00
2018,12,19,05,35,0.00
2018,12,19,05,36,0.10
2018,12,19,05,37,1.80
2018,12,19,05,38,1.90
2018,12,19,05,39,2.40
2018,12,19,05,40,3.10
2018,12,19,05,41,3.70
2018,12,19,05,42,2.70
2018,12,19,05,43,1.90
2018,12,19,05,44,1.00
2018,12,19,05,45,0.10
2018,12,19,05,46,0.00
2018,12,19,05,47,0.00
2018,12,19,05,48,0.00
2018,12,19,05,49,0.00
2018,12,19,05,50,0.00
2018,12,19,05,51,0.00
2018,12,19,05,52,0.00
2018,12,19,05,53,0.00
2018,12,19,05,54,0.00
2018,12,19,05,55,0.00
2018,12,19,05,56,0.00
2018,12,19,05,57,0.00
2018,12,19,05,58,0.00
2018,12,19,05,59,0.00
2018,12,19,06,00,0.00
2018,12,19,06,01,0.00
2018,12,19,06,02,0.00
2018,12,19,06,03,0.00
2018,12,19,06,04,0.00
2018,12,19,06,05,0.00
2018,12,19,06,06,0.00
2018,12,19,06,07,0.00
2018,12,19,06,08,0.00
2018,12,19,06,09,0.00
2018,12,19,06,10,0.00
2018,12,19,06,11,0.00
2018,12,19,06,12,2.90
2018,12,19,06,13,1.40
2018,12,19,06,14,0.00
2018,12,19,06,15,0.00
2018,12,19,06,16,0.10
2018,12,19,06,17,1.70
2018,12,19,06,18,0.40
2018,12,19,06,19,1.20
2018,12,19,06,20,2.10
2018,12,19,06,21,3.00
2018,12,19,06,22,0.90
2018,12,19,06,23,1.80
2018,12,19,06,24,0.90
2018,12,19,06,25,0.20
2018,12,19,06,26,1.00
2018,12,19,06,27,0.00
2018,12,19,06,28,0.70
2018,12,19,06,29,0.50
2018,12,19,06,30,0.50
2018,12,19,06,31,0.00
2018,12,19,06,32,0.00
2018,12,19,06,33,0.00
2018,12,19,06,34,0.00
2018,12,19,06,35,0.00
2018,12,19,06,36,0.80
2018,12,19,06,37,3.40
2018,12,19,06,38,2.80
2018,12,19,06,39,0.00
2018,12,19,06,40,0.00
2018,12,19,06,41,0.00
2018,12,19,06,42,0.40
2018,12,19,06,43,1.20
2018,12,19,06,44,2.60
2018,12,19,06,45,7.40
2018,12,19,06,46,6.50
2018,12,19,06,47,6.10
2018,12,19,06,48,5.80
2018,12,19,06,49,3.10
2018,12,19,06,50,4.80
2018,12,19,06,51,4.30
2018,12,19,06,52,9.70
2018,12,19,06,53,3.90
2018,12,19,06,54,8.00
2018,12,19,06,55,5.40
2018,12,19,06,56,12.50
2018,12,19,06,57,5.60
2018,12,19,06,58,6.40
2018,12,19,06,59,12.00
2018,12,19,07,00,9.70
2018,12,19,07,01,6.60
2018,12,19,07,02,10.50
2018,12,19,07,03,8.60
2018,12,19,07,04,10.00
2018,12,19,07,05,9.10
2018,12,19,07,06,10.80
2018,12,19,07,07,9.70
2018,12,19,07,08,10.10
2018,12,19,07,09,13.30
2018,12,19,07,10,11.90
2018,12,19,07,11,7.40
2018,12,19,07,12,6.50
2018,12,19,07,13,7.20
2018,12,19,07,14,9.50
2018,12,19,07,15,7.20
2018,12,19,07,16,8.80
2018,12,19,07,17,7.40
2018,12,19,07,18,5.20
2018,12,19,07,19,7.00
2018,12,19,07,20,7.70
2018,12,19,07,21,8.10
2018,12,19,07,22,3.80
2018,12,19,07,23,2.30
2018,12,19,07,24,1.90
2018,12,19,07,25,2.10
2018,12,19,07,26,4.90
2018,12,19,07,27,1.00
2018,12,19,07,28,3.80
2018,12,19,07,29,6.10
2018,12,19,07,30,4.70
2018,12,19,07,31,6.40
2018,12,19,07,32,4.40
2018,12,19,07,33,3.40
2018,12,19,07,34,0.80
2018,12,19,07,35,2.80
2018,12,19,07,36,2.10
2018,12,19,07,37,1.70
2018,12,19,07,38,2.50
2018,12,19,07,39,1.80
2018,12,19,07,40,3.00
2018,12,19,07,41,1.20
2018,12,19,07,42,0.00
2018,12,19,07,43,0.00
2018,12,19,07,44,0.00
2018,12,19,07,45,0.30
2018,12,19,07,46,5.20
2018,12,19,07,47,3.00
2018,12,19,07,48,4.60
2018,12,19,07,49,4.10
2018,12,19,07,50,2.20
2018,12,19,07,51,1.50
2018,12,19,07,52,3.40
2018,12,19,07,53,3.10
2018,12,19,07,54,0.00
2018,12,19,07,55,3.10
2018,12,19,07,56,0.60
2018,12,19,07,57,1.30
2018,12,19,07,58,12.10
2018,12,19,07,59,4.70
2018,12,19,08,00,4.10
2018,12,19,08,01,3.00
2018,12,19,08,02,1.20
2018,12,19,08,03,3.30
2018,12,19,08,04,5.00
2018,12,19,08,05,5.00
2018,12,19,08,06,4.30
2018,12,19,08,07,3.00
2018,12,19,08,08,6.20
2018,12,19,08,09,3.10
2018,12,19,08,10,2.80
2018,12,19,08,11,7.20
2018,12,19,08,12,8.40
2018,12,19,08,13,6.00
2018,12,19,08,14,5.20
2018,12,19,08,15,3.20
2018,12,19,08,16,5.60
2018,12,19,08,17,3.20
2018,12,19,08,18,1.60
2018,12,19,08,19,1.60
2018,12,19,08,20,1.80
2018,12,19,08,21,3.80
2018,12,19,08,22,5.10
2018,12,19,08,23,1.00
2018,12,19,08,24,0.30
2018,12,19,08,25,0.00
2018,12,19,08,26,3.80
2018,12,19,08,27,5.40
2018,12,19,08,28,6.20
2018,12,19,08,29,2.20
2018,12,19,08,30,3.60
2018,12,19,08,31,6.70
2018,12,19,08,32,4.00
2018,12,19,08,33,3.90
2018,12,19,08,34,3.00
2018,12,19,08,35,1.60
2018,12,19,08,36,1.60
2018,12,19,08,37,1.00
2018,12,19,08,38,0.30
2018,12,19,08,39,2.80
2018,12,19,08,40,2.70
2018,12,19,08,41,1.00
2018,12,19,08,42,2.10
2018,12,19,08,43,3.20
2018,12,19,08,44,0.80
2018,12,19,08,45,0.00
2018,12,19,08,46,0.00
2018,12,19,08,47,0.00
2018,12,19,08,48,0.00
2018,12,19,08,49,0.00
2018,12,19,08,50,2.10
2018,12,19,08,51,3.10
2018,12,19,08,52,1.30
2018,12,19,08,53,0.00
2018,12,19,08,54,0.00
2018,12,19,08,55,0.00
2018,12,19,08,56,0.00
2018,12,19,08,57,0.10
2018,12,19,08,58,0.00
2018,12,19,08,59,0.00
2018,12,19,09,00,0.00
2018,12,19,09,01,0.00
2018,12,19,09,02,0.00
2018,12,19,09,03,0.00
2018,12,19,09,04,0.00
2018,12,19,09,05,0.00
2018,12,19,09,06,0.00
2018,12,19,09,07,0.00
2018,12,19,09,08,0.00
2018,12,19,09,09,0.00
2018,12,19,09,10,0.00
2018,12,19,09,11,0.00
2018,12,19,09,12,0.00
2018,12,19,09,13,0.00
2018,12,19,09,14,0.00
2018,12,19,09,15,0.00
2018,12,19,09,16,0.00
2018,12,19,09,17,0.00
2018,12,19,09,18,0.00
2018,12,19,09,19,0.00
2018,12,19,09,20,0.00
2018,12,19,09,21,0.00
2018,12,19,09,22,0.00
2018,12,19,09,23,0.00
2018,12,19,09,24,0.00
2018,12,19,09,25,0.00
2018,12,19,09,26,0.00
2018,12,19,09,27,0.00
2018,12,19,09,28,0.00
2018,12,19,09,29,0.00
2018,12,19,09,30,5.20
2018,12,19,09,31,4.00
2018,12,19,09,32,1.80
2018,12,19,09,33,2.30
2018,12,19,09,34,1.40
2018,12,19,09,35,0.10
2018,12,19,09,36,1.90
2018,12,19,09,37,0.20
2018,12,19,09,38,8.20
2018,12,19,09,39,7.30
2018,12,19,09,40,5.70
2018,12,19,09,41,6.10
2018,12,19,09,42,8.70
2018,12,19,09,43,8.80
2018,12,19,09,44,11.00
2018,12,19,09,45,10.50
2018,12,19,09,46,11.20
2018,12,19,09,47,16.70
2018,12,19,09,48,11.90
2018,12,19,09,49,14.30
2018,12,19,09,50,6.30
2018,12,19,09,51,11.60
2018,12,19,09,52,8.50
2018,12,19,09,53,9.10
2018,12,19,09,54,12.00
2018,12,19,09,55,14.80
2018,12,19,09,56,13.70
2018,12,19,09,57,14.60
2018,12,19,09,58,17.20
2018,12,19,09,59,15.90
2018,12,19,10,00,10.90
2018,12,19,10,01,12.40
2018,12,19,10,02,14.10
2018,12,19,10,03,14.30
2018,12,19,10,04,12.00
2018,12,19,10,05,11.90
2018,12,19,10,06,10.90
2018,12,19,10,07,13.50
2018,12,19,10,08,17.10
2018,12,19,10,09,12.30
2018,12,19,10,10,8.70
2018,12,19,10,11,10.60
2018,12,19,10,12,13.80
2018,12,19,10,13,18.10
2018,12,19,10,14,17.30
2018,12,19,10,15,10.70
2018,12,19,10,16,9.40
2018,12,19,10,17,11.40
2018,12,19,10,18,14.10
2018,12,19,10,19,16.90
2018,12,19,10,20,12.30
2018,12,19,10,21,8.90
2018,12,19,10,22,13.70
2018,12,19,10,23,8.90
2018,12,19,10,24,9.80
2018,12,19,10,25,13.20
2018,12,19,10,26,8.30
2018,12,19,10,27,10.00
2018,12,19,10,28,16.60
2018,12,19,10,29,12.60
2018,12,19,10,30,11.70
2018,12,19,10,31,13.80
2018,12,19,10,32,8.70
2018,12,19,10,33,15.70
2018,12,19,10,34,13.10
2018,12,19,10,35,16.30
2018,12,19,10,36,14.30
2018,12,19,10,37,7.70
2018,12,19,10,38,14.00
2018,12,19,10,39,15.70
2018,12,19,10,40,15.10
2018,12,19,10,41,11.90
2018,12,19,10,42,16.30
2018,12,19,10,43,13.40
2018,12,19,10,44,6.30
2018,12,19,10,45,7.80
2018,12,19,10,46,6.10
2018,12,19,10,47,8.00
2018,12,19,10,48,6.50
2018,12,19,10,49,4.50
2018,12,19,10,50,6.70
2018,12,19,10,51,14.20
2018,12,19,10,52,10.50
2018,12,19,10,53,8.20
2018,12,19,10,54,8.00
2018,12,19,10,55,9.00
2018,12,19,10,56,8.10
2018,12,19,10,57,6.50
2018,12,19,10,58,3.80
2018,12,19,10,59,12.40
2018,12,19,11,00,11.80
2018,12,19,11,01,10.90
2018,12,19,11,02,17.90
2018,12,19,11,03,12.00
2018,12,19,11,04,13.80
2018,12,19,11,05,11.60
2018,12,19,11,06,11.10
2018,12,19,11,07,12.30
2018,12,19,11,08,14.50
2018,12,19,11,09,20.00
2018,12,19,11,10,10.50
2018,12,19,11,11,10.20
2018,12,19,11,12,10.20
2018,12,19,11,13,19.90
2018,12,19,11,14,16.80
2018,12,19,11,15,16.60
2018,12,19,11,16,18.80
2018,12,19,11,17,11.30
2018,12,19,11,18,12.10
2018,12,19,11,19,10.20
2018,12,19,11,20,11.60
2018,12,19,11,21,8.10
2018,12,19,11,22,9.90
2018,12,19,11,23,6.70
2018,12,19,11,24,6.40
2018,12,19,11,25,10.00
2018,12,19,11,26,15.30
2018,12,19,11,27,12.10
2018,12,19,11,28,12.00
2018,12,19,11,29,8.10
2018,12,19,11,30,9.40
2018,12,19,11,31,5.10
2018,12,19,11,32,5.10
2018,12,19,11,33,7.10
2018,12,19,11,34,8.30
2018,12,19,11,35,9.50
2018,12,19,11,36,7.70
2018,12,19,11,37,15.80
2018,12,19,11,38,14.00
2018,12,19,11,39,15.60
2018,12,19,11,40,10.40
2018,12,19,11,41,10.10
2018,12,19,11,42,11.60
2018,12,19,11,43,15.60
2018,12,19,11,44,11.90
2018,12,19,11,45,10.60
2018,12,19,11,46,6.20
2018,12,19,11,47,15.50
2018,12,19,11,48,15.00
2018,12,19,11,49,16.00
2018,12,19,11,50,19.30
2018,12,19,11,51,14.10
2018,12,19,11,52,9.90
2018,12,19,11,53,13.90
2018,12,19,11,54,10.70
2018,12,19,11,55,11.20
2018,12,19,11,56,9.30
2018,12,19,11,57,12.50
2018,12,19,11,58,13.80
2018,12,19,11,59,8.90
2018,12,19,12,00,9.70
2018,12,19,12,01,9.70
2018,12,19,12,02,9.00
2018,12,19,12,03,10.70
2018,12,19,12,04,12.20
2018,12,19,12,05,12.00
2018,12,19,12,06,9.00
2018,12,19,12,07,14.30
2018,12,19,12,08,14.80
2018,12,19,12,09,18.90
2018,12,19,12,10,15.40
2018,12,19,12,11,17.40
2018,12,19,12,12,17.00
2018,12,19,12,13,15.70
2018,12,19,12,14,15.80
2018,12,19,12,15,9.30
2018,12,19,12,16,7.60
2018,12,19,12,17,17.20
2018,12,19,12,18,15.90
2018,12,19,12,19,13.20
2018,12,19,12,20,13.70
2018,12,19,12,21,17.10
2018,12,19,12,22,11.60
2018,12,19,12,23,13.60
2018,12,19,12,24,12.10
2018,12,19,12,25,8.90
2018,12,19,12,26,8.30
2018,12,19,12,27,11.60
2018,12,19,12,28,8.70
2018,12,19,12,29,7.30
2018,12,19,12,30,5.70
2018,12,19,12,31,11.30
2018,12,19,12,32,10.10
2018,12,19,12,33,16.70
2018,12,19,12,34,10.70
2018,12,19,12,35,16.20
2018,12,19,12,36,14.80
2018,12,19,12,37,15.80
2018,12,19,12,38,14.60
2018,12,19,12,39,12.50
2018,12,19,12,40,8.90
2018,12,19,12,41,7.00
2018,12,19,12,42,8.00
2018,12,19,12,43,7.00
2018,12,19,12,44,8.30
2018,12,19,12,45,10.70
2018,12,19,12,46,11.70
2018,12,19,12,47,9.00
2018,12,19,12,48,11.50
2018,12,19,12,49,9.70
2018,12,19,12,50,12.00
2018,12,19,12,51,13.30
2018,12,19,12,52,12.80
2018,12,19,12,53,14.40
2018,12,19,12,54,8.10
2018,12,19,12,55,10.00
2018,12,19,12,56,9.30
2018,12,19,12,57,12.00
2018,12,19,12,58,7.70
2018,12,19,12,59,9.00
2018,12,19,13,00,7.80
2018,12,19,13,01,12.10
2018,12,19,13,02,17.80
2018,12,19,13,03,11.10
2018,12,19,13,04,9.60
2018,12,19,13,05,8.20
2018,12,19,13,06,13.40
2018,12,19,13,07,7.70
2018,12,19,13,08,18.30
2018,12,19,13,09,13.00
2018,12,19,13,10,16.60
2018,12,19,13,11,10.40
2018,12,19,13,12,9.70
2018,12,19,13,13,13.60
2018,12,19,13,14,18.60
2018,12,19,13,15,15.30
2018,12,19,13,16,8.80
2018,12,19,13,17,7.80
2018,12,19,13,18,12.60
2018,12,19,13,19,18.50
2018,12,19,13,20,11.90
2018,12,19,13,21,11.10
2018,12,19,13,22,14.00
2018,12,19,13,23,10.90
2018,12,19,13,24,13.40
2018,12,19,13,25,14.30
2018,12,19,13,26,10.50
2018,12,19,13,27,15.30
2018,12,19,13,28,14.30
2018,12,19,13,29,9.00
2018,12,19,13,30,15.50
2018,12,19,13,31,11.40
2018,12,19,13,32,13.60
2018,12,19,13,33,12.20
2018,12,19,13,34,19.90
2018,12,19,13,35,15.90
2018,12,19,13,36,10.10
2018,12,19,13,37,8.90
2018,12,19,13,38,14.10
2018,12,19,13,39,17.50
2018,12,19,13,40,15.60
2018,12,19,13,41,14.80
2018,12,19,13,42,15.50
2018,12,19,13,43,12.60
2018,12,19,13,44,11.90
2018,12,19,13,45,12.70
2018,12,19,13,46,9.60
2018,12,19,13,47,10.40
2018,12,19,13,48,8.40
2018,12,19,13,49,11.20
2018,12,19,13,50,11.10
2018,12,19,13,51,12.20
2018,12,19,13,52,11.80
2018,12,19,13,53,7.50
2018,12,19,13,54,7.90
2018,12,19,13,55,9.00
2018,12,19,13,56,8.80
2018,12,19,13,57,5.80
2018,12,19,13,58,8.30
2018,12,19,13,59,13.50
2018,12,19,14,00,9.50
2018,12,19,14,01,7.50
2018,12,19,14,02,6.40
2018,12,19,14,03,4.50
2018,12,19,14,04,9.90
2018,12,19,14,05,14.90
2018,12,19,14,06,11.60
2018,12,19,14,07,7.40
2018,12,19,14,08,6.70
2018,12,19,14,09,10.70
2018,12,19,14,10,9.30
2018,12,19,14,11,4.40
2018,12,19,14,12,9.20
2018,12,19,14,13,12.20
2018,12,19,14,14,11.70
2018,12,19,14,15,13.10
2018,12,19,14,16,14.30
2018,12,19,14,17,14.60
2018,12,19,14,18,17.20
2018,12,19,14,19,8.70
2018,12,19,14,20,6.90
2018,12,19,14,21,8.60
2018,12,19,14,22,11.40
2018,12,19,14,23,13.40
2018,12,19,14,24,13.40
2018,12,19,14,25,10.00
2018,12,19,14,26,6.30
2018,12,19,14,27,10.90
2018,12,19,14,28,10.70
2018,12,19,14,29,13.10
2018,12,19,14,30,10.90
2018,12,19,14,31,9.20
2018,12,19,14,32,10.40
2018,12,19,14,33,11.30
2018,12,19,14,34,15.20
2018,12,19,14,35,15.90
2018,12,19,14,36,8.90
2018,12,19,14,37,10.30
2018,12,19,14,38,9.20
2018,12,19,14,39,11.40
2018,12,19,14,40,10.00
2018,12,19,14,41,10.30
2018,12,19,14,42,14.90
2018,12,19,14,43,14.30
2018,12,19,14,44,10.40
2018,12,19,14,45,14.30
2018,12,19,14,46,15.30
2018,12,19,14,47,19.00
2018,12,19,14,48,12.90
2018,12,19,14,49,19.00
2018,12,19,14,50,17.90
2018,12,19,14,51,14.30
2018,12,19,14,52,11.10
2018,12,19,14,53,12.60
2018,12,19,14,54,12.50
2018,12,19,14,55,8.90
2018,12,19,14,56,8.40
2018,12,19,14,57,10.00
2018,12,19,14,58,15.10
2018,12,19,14,59,9.70
2018,12,19,15,00,7.70
2018,12,19,15,01,13.00
2018,12,19,15,02,16.60
2018,12,19,15,03,12.00
2018,12,19,15,04,13.70
2018,12,19,15,05,12.30
2018,12,19,15,06,10.80
2018,12,19,15,07,7.20
2018,12,19,15,08,9.70
2018,12,19,15,09,16.00
2018,12,19,15,10,12.80
2018,12,19,15,11,4.20
2018,12,19,15,12,4.90
2018,12,19,15,13,13.10
2018,12,19,15,14,11.70
2018,12,19,15,15,5.70
2018,12,19,15,16,8.70
2018,12,19,15,17,8.70
2018,12,19,15,18,9.70
2018,12,19,15,19,4.30
2018,12,19,15,20,5.70
2018,12,19,15,21,14.10
2018,12,19,15,22,14.50
2018,12,19,15,23,10.00
2018,12,19,15,24,7.60
2018,12,19,15,25,8.10
2018,12,19,15,26,9.50
2018,12,19,15,27,8.50
2018,12,19,15,28,7.70
2018,12,19,15,29,7.70
2018,12,19,15,30,6.90
2018,12,19,15,31,5.70
2018,12,19,15,32,6.60
2018,12,19,15,33,4.10
2018,12,19,15,34,7.70
2018,12,19,15,35,5.00
2018,12,19,15,36,3.30
2018,12,19,15,37,1.70
2018,12,19,15,38,5.70
2018,12,19,15,39,1.10
2018,12,19,15,40,2.00
2018,12,19,15,41,3.80
2018,12,19,15,42,6.70
2018,12,19,15,43,2.80
2018,12,19,15,44,2.50
2018,12,19,15,45,7.50
2018,12,19,15,46,3.40
2018,12,19,15,47,3.60
2018,12,19,15,48,9.70
2018,12,19,15,49,10.00
2018,12,19,15,50,0.30
2018,12,19,15,51,2.70
2018,12,19,15,52,3.70
2018,12,19,15,53,9.90
2018,12,19,15,54,7.20
2018,12,19,15,55,5.70
2018,12,19,15,56,8.10
2018,12,19,15,57,6.70
2018,12,19,15,58,6.20
2018,12,19,15,59,3.10
2018,12,19,16,00,5.60
2018,12,19,16,01,6.70
2018,12,19,16,02,7.10
2018,12,19,16,03,7.70
2018,12,19,16,04,5.80
2018,12,19,16,05,3.20
2018,12,19,16,06,9.00
2018,12,19,16,07,6.70
2018,12,19,16,08,2.30
2018,12,19,16,09,2.70
2018,12,19,16,10,4.00
2018,12,19,16,11,11.30
2018,12,19,16,12,4.70
2018,12,19,16,13,2.40
2018,12,19,16,14,0.50
2018,12,19,16,15,0.30
2018,12,19,16,16,1.90
2018,12,19,16,17,1.50
2018,12,19,16,18,2.40
2018,12,19,16,19,0.60
2018,12,19,16,20,0.00
2018,12,19,16,21,0.00
2018,12,19,16,22,0.00
2018,12,19,16,23,0.00
2018,12,19,16,24,0.00
2018,12,19,16,25,1.10
2018,12,19,16,26,0.80
2018,12,19,16,27,1.40
2018,12,19,16,28,0.20
2018,12,19,16,29,4.40
2018,12,19,16,30,3.20
2018,12,19,16,31,2.40
2018,12,19,16,32,4.00
2018,12,19,16,33,4.50
2018,12,19,16,34,0.80
2018,12,19,16,35,0.80
2018,12,19,16,36,0.00
2018,12,19,16,37,0.50
2018,12,19,16,38,4.00
2018,12,19,16,39,2.70
2018,12,19,16,40,3.80
2018,12,19,16,41,4.10
2018,12,19,16,42,3.50
2018,12,19,16,43,1.60
2018,12,19,16,44,1.80
2018,12,19,16,45,1.90
2018,12,19,16,46,0.60
2018,12,19,16,47,3.40
2018,12,19,16,48,3.40
2018,12,19,16,49,2.80
2018,12,19,16,50,0.70
2018,12,19,16,51,1.80
2018,12,19,16,52,3.10
2018,12,19,16,53,2.90
2018,12,19,16,54,2.50
2018,12,19,16,55,2.10
2018,12,19,16,56,2.50
2018,12,19,16,57,2.90
2018,12,19,16,58,2.30
2018,12,19,16,59,2.20
2018,12,19,17,00,1.30
2018,12,19,17,01,1.50
2018,12,19,17,02,2.30
2018,12,19,17,03,2.10
2018,12,19,17,04,2.30
2018,12,19,17,05,0.20
2018,12,19,17,06,0.00
2018,12,19,17,07,0.00
2018,12,19,17,08,0.20
2018,12,19,17,09,3.50
2018,12,19,17,10,3.20
2018,12,19,17,11,1.10
2018,12,19,17,12,0.00
2018,12,19,17,13,0.00
2018,12,19,17,14,0.00
2018,12,19,17,15,0.00
2018,12,19,17,16,0.00
2018,12,19,17,17,0.00
2018,12,19,17,18,0.00
2018,12,19,17,19,0.00
2018,12,19,17,20,0.00
2018,12,19,17,21,0.00
2018,12,19,17,22,0.00
2018,12,19,17,23,0.00
2018,12,19,17,24,0.00
2018,12,19,17,25,0.00
2018,12,19,17,26,0.00
2018,12,19,17,27,0.00
2018,12,19,17,28,0.00
2018,12,19,17,29,0.00
2018,12,19,17,30,0.00
2018,12,19,17,31,0.00
2018,12,19,17,32,0.00
2018,12,19,17,33,2.10
2018,12,19,17,34,5.70
2018,12,19,17,35,5.10
2018,12,19,17,36,5.60
2018,12,19,17,37,5.00
2018,12,19,17,38,4.20
2018,12,19,17,39,2.20
2018,12,19,17,40,0.80
2018,12,19,17,41,0.10
2018,12,19,17,42,0.00
2018,12,19,17,43,0.00
2018,12,19,17,44,0.00
2018,12,19,17,45,0.00
2018,12,19,17,46,0.00
2018,12,19,17,47,0.00
2018,12,19,17,48,0.00
2018,12,19,17,49,0.00
2018,12,19,17,50,0.00
2018,12,19,17,51,0.00